This is the latest recevied weather packets stored in our database for station/object KO4ZGL-13. If no packets are shown the sender has not sent any weather packets the latest 10 day(s).
| Time | Temp. | Humidity | Pressure | Rain* | Wind** | Luminosity | Snow |
|---|---|---|---|---|---|---|---|
| 1787688639 | 35° C | 59% | 1015.5 hPa | 0 mm | - | 512 W/m² | - |
| 1787688333 | 35° C | 63% | 1015.9 hPa | 0 mm | - | 520 W/m² | - |
| 1787688028 | 34.44° C | 62% | 1015.9 hPa | 0 mm | - | 539 W/m² | - |
| 1787687724 | 34.44° C | 65% | 1015.9 hPa | 0 mm | - | 547 W/m² | - |
| 1787687418 | 33.89° C | 65% | 1015.7 hPa | 0 mm | - | 534 W/m² | - |
| 1787687115 | 34.44° C | 65% | 1016 hPa | 0 mm | - | 554 W/m² | - |
| 1787686815 | 33.89° C | 62% | 1015.9 hPa | 0 mm | - | 584 W/m² | - |
| 1787686511 | 33.33° C | 64% | 1015.9 hPa | 0 mm | - | 593 W/m² | - |
| 1787686206 | 33.33° C | 67% | 1016 hPa | 0 mm | - | 587 W/m² | - |
| 1787685901 | 32.78° C | 67% | 1016 hPa | 0 mm | - | 524 W/m² | - |
| 1787685596 | 32.78° C | 69% | 1016 hPa | 0 mm | - | 457 W/m² | - |
| 1787685291 | 32.78° C | 71% | 1015.8 hPa | 0 mm | - | 402 W/m² | - |
| 1787684990 | 33.89° C | 69% | 1016 hPa | 0 mm | - | 319 W/m² | - |
| 1787684687 | 34.44° C | 64% | 1016 hPa | 0 mm | - | 393 W/m² | - |
| 1787684384 | 33.89° C | 66% | 1016.3 hPa | 0 mm | - | 544 W/m² | - |
| 1787684082 | 33.89° C | 65% | 1016.3 hPa | 0 mm | - | 607 W/m² | - |
| 1787683779 | 33.89° C | 66% | 1016.2 hPa | 0 mm | - | 456 W/m² | - |
| 1787683476 | 33.89° C | 64% | 1016.3 hPa | 0 mm | - | 646 W/m² | - |
| 1787683171 | 34.44° C | 67% | 1016.5 hPa | 0 mm | - | 632 W/m² | - |
| 1787682868 | 33.33° C | 70% | 1016.4 hPa | 0 mm | - | 642 W/m² | - |
| 1787682564 | 33.89° C | 66% | 1016.6 hPa | 0 mm | - | 656 W/m² | - |
| 1787682259 | 33.33° C | 68% | 1016.6 hPa | 0 mm | - | 655 W/m² | - |
| 1787681954 | 33.89° C | 69% | 1016.7 hPa | 0 mm | - | 658 W/m² | - |
| 1787681649 | 33.33° C | 70% | 1016.8 hPa | 0 mm | - | 638 W/m² | - |
| 1787681344 | 32.22° C | 71% | 1016.9 hPa | 0 mm | - | 609 W/m² | - |
* Rain latest hour (hover to see other rain measurements)
** Current wind speed in m/s (hover to see current wind gust speed)